Snowfall_Accumulation
0.0 0.0 0.0 0.0 0.0 0.0 0.0 0.0 0.0 0.0 0.0 0.0 0.0 0.0 0.0 0.0 0.0 0.0 0.0 0.0 0.0 1.0 0.1 0.0 0.0 0.1 0.2 0.3 0.8 0.0 0.2 0.0 0.0 1.4 1.1 0.0 0.2 0.0 0.0 0.0 0.0 0.0 0.1 0.2 0.5 1.5 0.0 0.0 0.0 0.0 0.0 0.0 0.0 0.0
0.0 0.0 0.0 0.0 0.0 0.0 0.0 0.0 0.0 0.0 0.0 0.0 0.0 0.0 0.0 0.0 0.0 0.0 0.0 0.0 0.0 0.3 0.5 0.0 0.0 0.0 0.0 0.0 0.2 0.3 0.3 1.1 1.2 1.3 0.5 2.4 1.7 0.3 0.0 0.1 0.0 0.0 0.0 0.0 0.0 0.0 0.0 0.0 0.0 0.0 0.0 0.0 0.0 0.0
0.0 0.0 0.0 0.0 0.0 0.0 0.0 0.0 0.0 0.0 0.0 0.0 0.0 0.0 0.0 0.0 0.0 0.0 0.0 0.0 0.0 0.7 0.0 0.0 0.0 0.0 0.0 0.0 0.0 1.1 0.0 0.0 0.7 0.3 1.9 1.7 2.2 0.9 1.1 0.5 0.0 0.0 0.0 0.0 0.0 0.0 0.0 0.0 0.0 0.0 0.0 0.0 0.0 0.0
0.0 0.0 0.0 0.0 0.0 0.0 0.0 0.0 0.0 0.0 0.0 0.0 0.0 0.0 0.0 0.0 0.0 0.0 0.0 0.0 0.0 0.5 9.0 0.4 0.0 0.0 0.0 0.0 0.0 0.0 0.0 0.0 0.0 0.0 1.4 4.2 3.0 0.1 0.1 0.0 0.0 0.1 0.1 0.0 0.0 0.0 0.0 0.0 0.0 0.0 0.0 0.0 0.0 0.0
0.0 0.0 0.0 0.0 0.0 0.0 0.0 0.0 0.0 0.0 0.0 0.0 0.0 0.0 0.0 0.0 0.0 0.0 0.0 0.0 0.0 0.6 6.1 1.1 0.0 0.0 0.0 0.0 0.0 0.0 0.0 0.0 0.6 1.2 2.1 3.1 0.0 0.3 0.1 0.2 0.2 0.0 0.0 0.1 0.1 0.0 0.0 0.0 0.0 0.0 0.0 0.0 0.0 0.0
0.0 0.0 0.0 0.0 0.0 0.0 0.0 0.0 0.0 0.0 0.0 0.0 0.0 0.0 0.0 0.0 0.0 0.0 1.8 0.0 0.0 0.0 5.3 16.3 0.0 0.0 0.0 0.0 0.0 0.0 0.0 0.2 0.0 1.8 2.0 0.1 0.0 0.1 4.1 2.6 0.0 0.0 0.0 0.0 0.0 0.0 0.0 0.0 0.0 0.0 0.0 0.0 0.0 0.0
0.0 0.0 0.0 0.0 0.0 0.0 0.0 0.0 0.0 0.0 0.0 0.0 0.0 0.0 0.0 0.0 0.0 0.6 3.4 0.0 0.0 0.0 7.6 22.1 8.5 0.0 0.0 0.0 0.0 0.0 0.0 0.0 0.1 1.9 2.0 0.2 0.4 0.4 7.5 3.5 0.0 0.0 0.0 0.0 0.0 0.0 0.0 0.0 0.0 0.0 0.0 0.0 0.0 0.0
0.0 0.0 0.0 0.0 0.0 0.0 0.0 0.0 0.0 0.0 0.0 0.0 0.0 0.0 0.0 0.0 0.0 0.0 0.0 0.0 0.0 0.0 5.0 28.8 15.5 1.8 0.0 0.0 1.5 0.0 0.0 0.0 0.1 0.7 0.4 0.2 0.2 1.2 7.2 0.3 0.0 0.0 0.0 0.0 0.0 0.0 0.0 0.0 0.0 0.0 0.0 0.0 0.0 0.0
0.0 0.0 0.0 0.0 0.0 0.0 0.0 0.0 0.0 0.0 0.0 0.0 0.0 0.0 0.0 0.0 0.0 0.0 0.0 0.0 0.0 0.7 32.6 20.2 10.1 6.3 0.1 0.1 0.3 0.8 0.0 6.6 2.0 2.3 3.1 0.6 1.8 4.0 0.1 0.0 0.0 0.0 0.0 0.0 0.0 0.0 0.0 0.0 0.0 0.0 0.0 0.0 0.0 0.0
0.0 0.0 0.0 0.0 0.0 0.0 0.0 0.0 0.0 0.0 0.0 0.0 0.0 3.3 20.8 0.3 0.0 0.0 0.0 2.2 9.2 17.7 12.2 15.4 1.4 2.9 0.1 0.6 4.4 4.6 5.6 9.0 11.7 4.2 0.5 4.9 1.8 0.2 0.0 0.0 0.0 0.0 0.0 0.0 0.0 0.1 0.0 0.0 0.0 0.0 0.0 0.0 0.0 0.0
0.0 0.0 0.0 0.0 0.0 0.0 0.0 0.0 0.0 0.0 0.0 0.0 11.8 15.0 8.9 0.0 3.8 12.8 34.2 37.3 33.0 37.5 16.6 4.5 1.9 2.3 0.5 5.1 6.6 6.0 12.8 10.5 13.8 2.6 3.1 5.9 1.5 0.2 0.0 0.1 0.0 0.0 0.0 0.0 0.0 0.0 0.0 0.0 0.0 0.0 0.0 0.0 0.0 0.0
0.0 0.0 0.0 0.0 0.0 0.0 0.0 0.0 0.0 4.2 7.7 3.4 3.0 5.0 6.4 13.5 27.9 41.5 34.9 16.4 19.2 15.1 10.1 5.9 1.5 0.7 2.8 4.1 10.4 13.6 15.5 11.9 9.9 1.2 8.1 2.9 0.0 0.0 0.2 0.3 0.2 0.0 0.0 0.0 0.0 0.0 0.0 0.0 0.0 0.1 0.6 0.7 0.1 0.3
0.0 0.0 0.0 0.0 0.0 0.0 0.0 0.0 0.0 0.0 0.0 2.8 10.7 28.5 26.3 23.5 35.5 26.2 14.5 8.4 9.7 5.2 3.0 2.2 4.3 2.8 4.9 6.9 16.6 16.2 21.0 14.2 2.3 8.1 0.8 0.0 0.1 0.3 0.4 0.4 0.1 0.0 0.0 0.0 0.6 0.7 0.5 0.1 0.0 0.2 0.5 0.8 0.6 0.3
0.0 0.0 0.0 0.0 0.0 0.0 0.0 0.0 0.0 0.0 7.4 18.8 36.4 45.3 29.6 21.1 9.8 5.0 4.0 3.5 1.2 2.1 0.6 0.9 5.5 7.1 6.2 12.5 10.9 19.9 6.7 5.1 10.6 4.1 1.0 0.4 0.2 0.6 0.5 0.5 0.2 0.1 0.0 0.0 0.0 0.1 0.3 0.6 0.7 0.5 0.8 0.6 0.5 0.8
0.0 0.0 0.0 0.0 0.0 0.0 0.0 0.0 0.0 1.4 7.8 35.0 31.7 29.2 14.8 6.4 4.5 3.7 2.3 2.4 3.0 2.5 3.8 4.1 5.7 6.5 10.1 17.1 11.3 9.2 13.2 6.3 0.7 0.0 0.0 0.3 0.9 0.7 1.8 1.6 0.7 0.3 0.1 0.1 0.3 0.5 1.5 0.2 1.1 1.3 0.8 0.4 0.2 0.3
0.0 0.0 0.0 0.0 0.0 0.0 0.0 0.0 5.1 3.9 18.0 30.6 28.3 17.8 6.3 3.7 5.0 5.3 4.4 5.3 5.0 5.4 5.2 10.5 14.1 15.9 17.1 13.2 12.2 5.1 6.6 2.5 1.8 2.0 2.1 2.7 3.3 2.2 1.8 3.0 3.5 3.1 2.7 2.9 3.7 5.4 4.4 2.5 1.5 0.6 0.4 0.4 0.0 0.1
0.0 0.0 0.0 0.0 0.0 0.0 0.0 3.4 10.1 33.9 40.5 36.8 17.0 7.0 7.3 7.0 7.6 8.3 6.8 7.1 5.6 8.9 11.9 16.0 23.5 13.1 7.9 10.7 4.2 1.0 1.7 1.0 2.2 3.3 3.3 2.9 2.8 3.1 3.2 4.3 5.5 5.8 5.1 3.5 2.9 3.1 2.6 1.5 0.6 0.4 0.3 0.3 0.1 0.0
0.0 0.0 0.0 0.0 0.0 0.0 5.8 6.2 35.9 44.2 42.7 18.6 7.8 4.1 3.4 5.1 6.1 4.5 4.4 4.7 7.5 9.5 8.4 15.5 10.3 15.6 12.8 7.4 2.9 1.8 1.8 1.8 2.5 3.0 4.6 5.6 5.1 5.3 4.7 5.3 4.6 3.3 2.2 1.3 1.0 1.1 0.8 0.5 0.4 0.4 0.4 0.3 0.4 0.3
0.0 0.0 0.0 0.0 0.0 4.5 37.4 45.8 29.8 41.8 16.6 7.1 4.8 3.2 1.8 2.7 2.7 3.4 3.6 4.1 5.4 4.4 7.8 11.1 17.8 13.3 6.2 3.5 3.2 2.6 2.6 2.5 3.7 4.5 6.2 6.1 4.6 4.0 3.5 2.8 2.4 1.7 1.1 0.7 0.5 0.4 0.3 0.1 0.1 0.1 0.0 0.0 0.0 0.1
0.0 0.0 0.0 0.0 0.0 27.9 46.2 39.0 21.0 14.4 8.1 4.3 3.9 2.6 1.3 3.1 3.4 2.1 1.6 1.6 2.5 5.0 15.3 17.5 8.6 7.7 8.7 8.7 5.9 4.3 4.8 4.4 3.4 4.0 5.1 4.2 2.7 1.5 0.7 0.4 0.3 0.1 0.1 0.1 0.1 0.0 0.0 0.0 0.0 0.0 0.0 0.0 0.0 0.1
0.0 0.0 0.0 0.0 8.7 37.1 34.3 24.3 16.9 9.7 5.3 3.7 3.1 2.2 3.8 2.3 3.1 3.7 3.8 2.0 8.0 15.6 12.9 9.8 8.1 8.6 6.7 6.5 6.0 5.0 5.0 2.9 2.3 1.6 1.5 0.9 0.4 0.2 0.0 0.0 0.0 0.0 0.0 0.0 0.0 0.0 0.0 0.0 0.0 0.0 0.0 0.2 0.2 0.3
4.8 0.0 15.5 4.5 57.2 57.1 44.2 20.0 11.2 7.0 5.7 6.2 3.5 2.9 5.2 5.0 4.4 5.2 6.6 11.0 16.1 10.0 9.1 7.7 5.8 5.3 3.1 3.5 2.4 1.9 1.4 0.3 0.3 0.2 0.2 0.1 0.0 0.0 0.0 0.0 0.0 0.0 0.0 0.0 0.0 0.0 0.0 0.0 0.0 0.1 0.3 0.2 0.3 0.3
0.2 7.5 36.8 42.4 57.7 54.3 41.4 12.9 13.2 9.7 8.5 6.1 5.0 6.4 8.6 7.2 4.6 4.2 12.0 13.0 10.4 8.9 7.2 4.6 3.5 1.9 1.6 0.9 0.8 0.5 0.3 0.1 0.0 0.0 0.0 0.0 0.0 0.0 0.0 0.0 0.0 0.0 0.0 0.0 0.0 0.0 0.0 0.0 0.0 0.1 0.3 0.3 0.4 0.1
1.3 44.7 55.8 56.5 43.5 43.1 27.2 22.5 12.3 6.7 8.4 8.1 8.4 8.7 8.0 6.3 6.8 8.6 9.8 5.1 7.2 8.2 6.8 7.0 3.8 2.0 1.3 1.6 1.6 1.5 1.1 0.6 0.2 0.0 0.4 0.1 0.0 0.0 0.0 0.0 0.0 0.0 0.0 0.0 0.0 0.0 0.1 0.1 0.2 0.4 0.3 0.7 0.7 0.4
87.5 92.5 53.3 56.3 33.4 19.9 11.5 8.9 6.3 4.6 3.7 2.7 5.5 6.6 6.9 6.4 7.8 7.5 4.2 5.2 6.5 7.5 8.6 7.4 5.6 3.3 2.3 1.8 1.8 1.4 1.9 1.7 1.7 0.5 1.8 1.3 0.3 0.0 0.0 0.0 0.0 0.0 0.0 0.0 0.4 0.4 0.4 0.3 0.8 0.8 0.7 1.6 2.0 2.0
76.3 46.9 36.7 16.1 8.1 3.3 2.5 1.3 1.2 1.3 1.5 2.4 4.7 4.4 5.3 5.6 6.9 7.2 3.8 4.3 7.1 9.1 8.7 7.0 4.7 3.0 2.3 2.0 1.9 2.0 1.5 1.2 1.3 2.1 1.8 2.8 1.9 2.4 1.1 0.7 0.4 0.1 0.1 0.5 1.8 2.5 1.1 1.1 1.0 0.8 0.9 1.3 1.9 2.7
44.5 25.8 9.8 2.4 0.3 0.0 0.4 0.2 0.5 0.6 2.6 4.0 3.9 4.0 4.2 10.8 6.5 4.2 4.1 5.8 6.9 8.8 8.7 7.4 3.9 3.1 2.6 2.9 3.4 3.4 3.0 2.7 2.3 2.5 1.8 4.3 3.2 1.5 1.1 3.7 4.3 2.4 2.8 3.1 3.4 3.4 3.7 3.7 2.9 2.4 2.2 3.0 2.5 4.5
10.2 2.0 0.8 1.0 0.6 0.1 0.7 1.3 0.7 2.5 2.8 3.0 1.9 4.0 4.8 4.1 3.4 3.8 5.5 6.9 8.2 8.1 8.2 8.1 6.3 4.7 4.3 4.1 4.1 4.7 4.9 4.5 4.5 4.1 5.6 6.2 5.4 4.0 2.9 5.1 6.3 5.8 6.0 5.8 6.4 7.3 7.6 7.0 5.7 4.6 5.1 5.6 4.4 3.9
4.9 2.9 0.6 1.2 1.5 1.3 1.2 1.5 1.7 1.6 1.1 1.9 2.6 2.4 3.4 2.5 3.4 4.1 5.0 7.1 7.7 7.5 7.7 7.5 7.2 6.3 5.9 5.6 6.1 7.0 6.6 5.7 4.4 4.0 3.6 3.4 4.3 5.6 4.2 5.1 7.3 8.4 7.2 7.0 4.0 6.2 8.6 9.4 10.2 10.8 8.4 7.3 5.7 6.3
3.4 2.1 1.8 1.5 1.4 1.9 1.9 1.2 1.2 1.6 1.1 1.2 0.6 0.4 0.5 2.3 4.1 5.0 4.9 6.4 7.2 7.4 8.6 8.1 7.2 7.1 7.1 6.6 6.8 7.5 7.2 6.9 5.8 5.0 8.9 6.2 3.1 4.8 7.8 9.2 8.9 8.7 10.0 10.0 8.6 7.7 6.1 8.2 8.1 7.6 9.1 8.7 8.3 7.7
2.5 1.9 1.8 2.3 2.8 3.3 3.3 3.3 3.2 1.9 1.3 0.9 0.5 0.2 1.2 1.4 4.0 4.9 5.3 6.1 7.1 7.6 7.7 7.9 7.8 8.0 7.4 7.3 7.9 6.9 7.7 7.5 7.4 6.8 6.9 10.7 9.3 9.7 10.2 10.6 10.9 12.4 12.1 10.2 8.8 8.5 7.8 7.8 7.4 7.6 7.4 7.6 6.6 5.7
3.7 2.9 1.4 2.3 4.4 5.6 5.2 4.7 4.3 3.8 3.8 3.1 3.3 2.5 2.9 2.3 1.7 3.6 5.3 5.7 5.8 6.5 6.9 6.8 6.5 6.7 6.7 7.1 7.1 6.9 6.1 7.9 8.5 9.5 11.3 12.1 10.4 10.0 9.4 11.2 11.1 12.8 12.5 11.9 10.2 9.7 9.8 9.2 10.4 9.6 9.5 8.2 7.3 6.6
6.9 4.5 3.3 2.8 4.6 5.4 5.4 4.2 6.6 6.3 5.7 4.8 4.1 3.2 2.7 2.0 2.6 3.5 4.7 4.7 3.8 5.7 6.0 6.4 7.0 6.2 7.9 7.5 7.2 7.1 7.0 9.7 8.3 10.0 13.4 13.0 11.7 13.4 13.3 13.5 11.1 10.7 11.0 10.8 10.3 11.2 12.0 11.7 10.6 9.4 9.0 7.8 7.7 6.8